Location: Esp�n
(42.4593°N, 0.2047°W)
Time: 00:04:05
(UTC+00:00)

Cosmos 2221 - Pass Details

Date: 07 June 2020
Orbit: 594 x 615 km, 82.5° (Epoch: 11 July)

Event Time Altitude Azimuth Distance (km) Brightness Sun altitude
Rises 02:07:56 0° 349° (N) 2,881 6.7 -18.4°
Reaches altitude 10° 02:10:10 10° 347° (NNW) 1,975 5.8 -18.2°
Maximum altitude 02:14:30 68° 265° (W) 664 2.5 -17.7°
Enters shadow 02:16:18 34° 192° (SSW) 1,016 3.1 -17.5°
